| time (UTC) | temp F | wind direction | speed knots | gust knots | rain 1hr in | rain 24hr in | rain mn in | humidity % | barometer mb |
| 20260906095228 | 69 | 97 | 0.0 | 0.9 | 0.00 | 0.00 | 0.00 | 97 | 1009.2 |
| 20260906094727 | 69 | 53 | 0.0 | 0.0 | 0.00 | 0.00 | 0.00 | 97 | 1009.5 |
| 20260906094222 | 69 | 125 | 0.0 | 1.7 | 0.00 | 0.00 | 0.00 | 97 | 1009.3 |
| 20260906093719 | 70 | 94 | 0.9 | 1.7 | 0.00 | 0.00 | 0.00 | 97 | 1009.4 |
| 20260906093214 | 70 | 133 | 1.7 | 1.7 | 0.00 | 0.00 | 0.00 | 97 | 1009.5 |
| 20260906092708 | 70 | 119 | 0.0 | 0.9 | 0.00 | 0.00 | 0.00 | 97 | 1009.2 |
| 20260906091403 | 70 | 89 | 0.0 | 0.0 | 0.00 | 0.00 | 0.00 | 97 | 1009.4 |
| 20260906090900 | 70 | 89 | 0.0 | 0.0 | 0.00 | 0.00 | 0.00 | 97 | 1009.4 |
| 20260906090359 | 70 | 178 | 0.9 | 1.7 | 0.00 | 0.00 | 0.00 | 97 | 1009.6 |
| 20260906085854 | 70 | 215 | 0.0 | 1.7 | 0.00 | 0.00 | 0.00 | 97 | 1009.4 |
| 20260906085353 | 69 | 60 | 0.0 | 0.0 | 0.00 | 0.00 | 0.00 | 97 | 1009.3 |
| 20260906084848 | 69 | 60 | 0.0 | 0.0 | 0.00 | 0.00 | 0.00 | 97 | 1009.3 |
| 20260906084348 | 69 | 72 | 0.0 | 0.9 | 0.00 | 0.00 | 0.00 | 97 | 1009.4 |
| 20260906083842 | 70 | 88 | 0.0 | 0.9 | 0.00 | 0.00 | 0.00 | 97 | 1009.2 |
| 20260906083338 | 69 | 102 | 0.0 | 1.7 | 0.00 | 0.00 | 0.00 | 97 | 1009.3 |
| 20260906082838 | 70 | 72 | 0.0 | 1.7 | 0.00 | 0.00 | 0.00 | 97 | 1009.1 |
| 20260906082333 | 70 | 130 | 0.9 | 1.7 | 0.00 | 0.00 | 0.00 | 97 | 1009.2 |
| 20260906081829 | 70 | 124 | 0.0 | 0.9 | 0.00 | 0.00 | 0.00 | 96 | 1009.3 |
| 20260906081325 | 70 | 116 | 0.0 | 0.9 | 0.00 | 0.00 | 0.00 | 96 | 1009.2 |
| 20260906080821 | 70 | 121 | 0.9 | 1.7 | 0.00 | 0.00 | 0.00 | 96 | 1009.2 |
| 20260906080317 | 70 | 89 | 0.0 | 0.9 | 0.00 | 0.00 | 0.00 | 96 | 1009.2 |
| 20260906075816 | 70 | 89 | 0.0 | 0.0 | 0.00 | 0.00 | 0.00 | 96 | 1008.9 |
| 20260906075315 | 70 | 89 | 0.0 | 0.0 | 0.00 | 0.00 | 0.00 | 96 | 1009.1 |
| 20260906074811 | 70 | 89 | 0.0 | 0.9 | 0.00 | 0.00 | 0.00 | 96 | 1009.1 |
| 20260906074311 | 70 | 89 | 0.9 | 1.7 | 0.00 | 0.00 | 0.00 | 96 | 1009.1 |
| 20260906073810 | 70 | 100 | 0.0 | 0.0 | 0.00 | 0.00 | 0.00 | 96 | 1009.1 |
| 20260906073305 | 70 | 152 | 0.9 | 0.9 | 0.00 | 0.00 | 0.00 | 96 | 1009.2 |
| 20260906072801 | 70 | 135 | 0.0 | 0.9 | 0.00 | 0.00 | 0.00 | 96 | 1009.2 |
| 20260906072256 | 70 | 121 | 0.9 | 1.7 | 0.00 | 0.00 | 0.00 | 96 | 1009.1 |
| 20260906071752 | 70 | 116 | 0.9 | 1.7 | 0.00 | 0.00 | 0.00 | 96 | 1009.1 |
| 20260906071252 | 70 | 117 | 0.0 | 0.9 | 0.00 | 0.00 | 0.00 | 96 | 1009.2 |
| 20260906070749 | 70 | 113 | 0.9 | 1.7 | 0.00 | 0.00 | 0.00 | 95 | 1009.4 |
| 20260906070244 | 70 | 130 | 0.0 | 0.9 | 0.00 | 0.00 | 0.00 | 95 | 1009.2 |
| 20260906065744 | 71 | 103 | 0.0 | 0.9 | 0.00 | 0.00 | 0.00 | 95 | 1009.2 |
| 20260906065239 | 71 | 139 | 0.0 | 0.9 | 0.00 | 0.00 | 0.00 | 95 | 1009.3 |
| 20260906064735 | 71 | 49 | 0.0 | 0.9 | 0.00 | 0.00 | 0.00 | 95 | 1009.4 |
| 20260906064230 | 71 | 112 | 0.0 | 0.0 | 0.00 | 0.00 | 0.00 | 95 | 1009.4 |
| 20260906063725 | 71 | 94 | 0.9 | 1.7 | 0.00 | 0.00 | 0.00 | 95 | 1009.5 |
| 20260906063221 | 71 | 118 | 0.0 | 1.7 | 0.00 | 0.00 | 0.00 | 95 | 1009.4 |
| 20260906062716 | 71 | 37 | 0.0 | 0.9 | 0.00 | 0.00 | 0.00 | 94 | 1009.7 |
| 20260906062215 | 71 | 98 | 0.0 | 1.7 | 0.00 | 0.00 | 0.00 | 94 | 1009.7 |
| 20260906061711 | 71 | 99 | 0.9 | 1.7 | 0.00 | 0.00 | 0.00 | 94 | 1009.5 |
| 20260906061207 | 71 | 62 | 0.0 | 0.0 | 0.00 | 0.00 | 0.00 | 94 | 1009.4 |
| 20260906060703 | 71 | 123 | 0.0 | 0.9 | 0.00 | 0.00 | 0.00 | 94 | 1009.4 |
| 20260906060200 | 71 | 147 | 0.0 | 1.7 | 0.00 | 0.00 | 0.00 | 94 | 1009.4 |
| 20260906055655 | 71 | 115 | 0.0 | 1.7 | 0.00 | 0.00 | 0.00 | 94 | 1009.5 |
| 20260906055150 | 71 | 315 | 0.0 | 0.0 | 0.00 | 0.00 | 0.00 | 94 | 1009.7 |
| 20260906054645 | 71 | 142 | 0.0 | 1.7 | 0.00 | 0.00 | 0.00 | 94 | 1009.8 |
| 20260906054140 | 71 | 42 | 0.9 | 1.7 | 0.00 | 0.00 | 0.00 | 94 | 1010.1 |
| 20260906053637 | 71 | 42 | 0.9 | 1.7 | 0.00 | 0.00 | 0.00 | 94 | 1010.1 |
| 20260906053131 | 71 | 42 | 0.0 | 0.9 | 0.00 | 0.00 | 0.00 | 93 | 1009.9 |
| 20260906052627 | 71 | 42 | 0.0 | 0.9 | 0.00 | 0.00 | 0.00 | 93 | 1009.9 |
| 20260906052124 | 71 | 62 | 0.0 | 0.0 | 0.00 | 0.00 | 0.00 | 93 | 1010.0 |
| 20260906051620 | 72 | 53 | 0.0 | 0.9 | 0.00 | 0.00 | 0.00 | 93 | 1010.2 |
| 20260906051120 | 72 | 108 | 0.0 | 0.9 | 0.00 | 0.00 | 0.00 | 93 | 1010.2 |
| 20260906050616 | 72 | 74 | 0.9 | 1.7 | 0.00 | 0.00 | 0.00 | 92 | 1010.0 |
| 20260906050110 | 72 | 121 | 0.0 | 1.7 | 0.00 | 0.00 | 0.00 | 92 | 1009.9 |
| 20260906045609 | 72 | 152 | 0.9 | 1.7 | 0.00 | 0.00 | 0.00 | 92 | 1010.1 |
| 20260906045059 | 72 | 120 | 0.9 | 1.7 | 0.00 | 0.00 | 0.00 | 92 | 1010.2 |
| 20260906044554 | 72 | 147 | 1.7 | 1.7 | 0.00 | 0.00 | 0.00 | 92 | 1010.1 |
| 20260906044049 | 72 | 148 | 0.0 | 1.7 | 0.00 | 0.00 | 0.00 | 92 | 1010.1 |
| 20260906043545 | 72 | 146 | 0.0 | 0.9 | 0.00 | 0.00 | 0.00 | 92 | 1009.9 |
| 20260906043041 | 72 | 146 | 0.0 | 0.9 | 0.00 | 0.00 | 0.00 | 92 | 1009.9 |
| 20260906042540 | 72 | 149 | 0.0 | 0.9 | 0.00 | 0.00 | 0.00 | 92 | 1010.0 |
| 20260906042035 | 72 | 50 | 0.0 | 0.9 | 0.00 | 0.00 | 0.00 | 92 | 1010.2 |
| 20260906041531 | 73 | 50 | 0.0 | 0.9 | 0.00 | 0.00 | 0.00 | 91 | 1009.9 |
| 20260906041031 | 73 | 13 | 0.0 | 0.9 | 0.00 | 0.00 | 0.00 | 91 | 1010.3 |
| 20260906040526 | 73 | 48 | 0.0 | 0.9 | 0.00 | 0.00 | 0.00 | 90 | 1010.3 |
| 20260906040022 | 73 | 93 | 0.9 | 1.7 | 0.00 | 0.00 | 0.00 | 90 | 1010.4 |
| 20260906035516 | 73 | 124 | 0.0 | 1.7 | 0.00 | 0.00 | 0.00 | 90 | 1010.1 |
| 20260906035013 | 73 | 123 | 0.9 | 0.9 | 0.00 | 0.00 | 0.00 | 90 | 1010.0 |
| 20260906034512 | 73 | 148 | 0.0 | 0.9 | 0.00 | 0.00 | 0.00 | 90 | 1010.1 |
| 20260906034007 | 73 | 146 | 0.9 | 1.7 | 0.00 | 0.00 | 0.00 | 90 | 1010.2 |
| 20260906033502 | 73 | 132 | 0.9 | 1.7 | 0.00 | 0.00 | 0.00 | 90 | 1010.1 |
| 20260906032958 | 73 | 115 | 1.7 | 1.7 | 0.00 | 0.00 | 0.00 | 90 | 1010.1 |
| 20260906032455 | 73 | 133 | 0.0 | 1.7 | 0.00 | 0.00 | 0.00 | 90 | 1009.9 |
| 20260906031954 | 73 | 133 | 0.0 | 1.7 | 0.00 | 0.00 | 0.00 | 90 | 1010.0 |
| 20260906031450 | 73 | 150 | 0.9 | 1.7 | 0.00 | 0.00 | 0.00 | 90 | 1010.0 |
| 20260906030946 | 73 | 156 | 0.9 | 1.7 | 0.00 | 0.00 | 0.00 | 90 | 1010.3 |
| 20260906030440 | 73 | 119 | 0.0 | 0.9 | 0.00 | 0.00 | 0.00 | 90 | 1010.1 |
| 20260906025939 | 73 | 145 | 0.0 | 1.7 | 0.00 | 0.00 | 0.00 | 90 | 1010.3 |
| 20260906025434 | 73 | 123 | 0.0 | 1.7 | 0.00 | 0.00 | 0.00 | 89 | 1010.2 |
| 20260906024932 | 73 | 134 | 0.9 | 1.7 | 0.00 | 0.00 | 0.00 | 89 | 1010.4 |
| 20260906024433 | 73 | 129 | 0.0 | 1.7 | 0.00 | 0.00 | 0.00 | 89 | 1010.4 |
| 20260906023933 | 73 | 173 | 0.9 | 1.7 | 0.00 | 0.00 | 0.00 | 89 | 1010.4 |
| 20260906023430 | 73 | 157 | 0.9 | 1.7 | 0.00 | 0.00 | 0.00 | 88 | 1010.2 |
| 20260906022929 | 73 | 140 | 0.9 | 1.7 | 0.00 | 0.00 | 0.00 | 88 | 1010.1 |
| 20260906022425 | 73 | 131 | 0.0 | 0.9 | 0.00 | 0.00 | 0.00 | 87 | 1010.1 |
| 20260906021920 | 74 | 77 | 0.0 | 0.9 | 0.00 | 0.00 | 0.00 | 86 | 1010.1 |
| 20260906021421 | 74 | 77 | 0.0 | 0.9 | 0.00 | 0.00 | 0.00 | 86 | 1010.1 |
| 20260906020920 | 74 | 49 | 0.0 | 1.7 | 0.00 | 0.00 | 0.00 | 86 | 1009.7 |
| 20260906020415 | 74 | 120 | 0.9 | 1.7 | 0.00 | 0.00 | 0.00 | 85 | 1009.9 |
| 20260906015909 | 74 | 130 | 0.9 | 1.7 | 0.00 | 0.00 | 0.00 | 85 | 1009.7 |
| 20260906015409 | 74 | 132 | 0.9 | 1.7 | 0.00 | 0.00 | 0.00 | 85 | 1009.9 |
| 20260906014909 | 74 | 135 | 0.9 | 1.7 | 0.00 | 0.00 | 0.00 | 84 | 1009.8 |
| 20260906014409 | 75 | 143 | 0.9 | 1.7 | 0.00 | 0.00 | 0.00 | 84 | 1009.9 |
| 20260906013905 | 75 | 173 | 0.9 | 1.7 | 0.00 | 0.00 | 0.00 | 84 | 1010.0 |
| 20260906013400 | 75 | 218 | 0.9 | 1.7 | 0.00 | 0.00 | 0.00 | 83 | 1009.7 |
| 20260906012856 | 75 | 104 | 0.9 | 1.7 | 0.00 | 0.00 | 0.00 | 82 | 1010.0 |
| 20260906012350 | 75 | 117 | 0.0 | 1.7 | 0.00 | 0.00 | 0.00 | 82 | 1009.9 |
| 20260906011850 | 75 | 193 | 0.9 | 1.7 | 0.00 | 0.00 | 0.00 | 82 | 1009.8 |
| 20260906011345 | 75 | 192 | 1.7 | 2.6 | 0.00 | 0.00 | 0.00 | 81 | 1009.7 |
| 20260906010841 | 76 | 102 | 0.0 | 1.7 | 0.00 | 0.00 | 0.00 | 81 | 1009.7 |
| 20260906010337 | 76 | 186 | 0.0 | 1.7 | 0.00 | 0.00 | 0.00 | 80 | 1009.6 |
| 20260906005832 | 76 | 154 | 1.7 | 1.7 | 0.00 | 0.00 | 0.00 | 80 | 1009.6 |
| 20260906005331 | 76 | 141 | 0.9 | 1.7 | 0.00 | 0.00 | 0.00 | 80 | 1009.6 |
| 20260906004830 | 76 | 142 | 1.7 | 1.7 | 0.00 | 0.00 | 0.00 | 79 | 1009.6 |
| 20260906004330 | 76 | 146 | 0.9 | 1.7 | 0.00 | 0.00 | 0.00 | 79 | 1009.6 |
| 20260906003825 | 76 | 184 | 1.7 | 1.7 | 0.00 | 0.00 | 0.00 | 79 | 1009.5 |
| 20260906003321 | 77 | 156 | 0.9 | 1.7 | 0.00 | 0.00 | 0.00 | 78 | 1009.5 |
| 20260906002816 | 77 | 142 | 0.9 | 1.7 | 0.00 | 0.00 | 0.00 | 78 | 1009.8 |
| 20260906002315 | 77 | 133 | 0.0 | 0.9 | 0.00 | 0.00 | 0.00 | 77 | 1010.0 |
| 20260906001811 | 77 | 147 | 0.9 | 1.7 | 0.00 | 0.00 | 0.00 | 77 | 1010.1 |
| 20260906001307 | 77 | 115 | 0.9 | 1.7 | 0.00 | 0.00 | 0.00 | 77 | 1009.9 |
| 20260906000807 | 77 | 144 | 1.7 | 1.7 | 0.00 | 0.00 | 0.00 | 76 | 1009.8 |
| 20260906000303 | 78 | 130 | 0.9 | 2.6 | 0.00 | 0.00 | 0.00 | 76 | 1010.1 |
| 20260905235756 | 78 | 127 | 0.9 | 1.7 | 0.00 | 0.00 | 0.00 | 76 | 1010.0 |
| 20260905235256 | 78 | 83 | 0.0 | 1.7 | 0.00 | 0.00 | 0.00 | 76 | 1010.2 |
| 20260905234752 | 78 | 154 | 0.0 | 1.7 | 0.00 | 0.00 | 0.00 | 75 | 1009.9 |
| 20260905234247 | 79 | 196 | 0.9 | 1.7 | 0.00 | 0.00 | 0.00 | 75 | 1009.9 |
| 20260905233743 | 79 | 126 | 1.7 | 1.7 | 0.00 | 0.00 | 0.00 | 75 | 1010.3 |
| 20260905233242 | 79 | 156 | 0.0 | 0.9 | 0.00 | 0.00 | 0.00 | 74 | 1010.2 |
| 20260905232741 | 79 | 173 | 0.0 | 1.7 | 0.00 | 0.00 | 0.00 | 74 | 1010.5 |
| 20260905232237 | 79 | 149 | 0.9 | 0.9 | 0.00 | 0.00 | 0.00 | 74 | 1010.5 |
| 20260905231733 | 79 | 120 | 0.9 | 1.7 | 0.00 | 0.00 | 0.00 | 74 | 1010.4 |
| 20260905231228 | 79 | 95 | 0.0 | 1.7 | 0.00 | 0.00 | 0.00 | 74 | 1010.4 |
| 20260905230725 | 79 | 62 | 0.0 | 0.9 | 0.00 | 0.00 | 0.00 | 74 | 1009.9 |
| 20260905230222 | 79 | 88 | 0.9 | 1.7 | 0.00 | 0.00 | 0.00 | 76 | 1009.8 |
| 20260905225722 | 79 | 158 | 0.0 | 0.9 | 0.00 | 0.00 | 0.00 | 76 | 1009.7 |
| 20260905225217 | 79 | 111 | 0.9 | 1.7 | 0.00 | 0.00 | 0.00 | 76 | 1009.5 |
| 20260905224716 | 80 | 84 | 0.9 | 1.7 | 0.00 | 0.00 | 0.00 | 75 | 1009.3 |
| 20260905224212 | 80 | 48 | 0.0 | 1.7 | 0.00 | 0.00 | 0.00 | 75 | 1009.6 |
| 20260905223708 | 80 | 161 | 0.9 | 2.6 | 0.00 | 0.00 | 0.00 | 75 | 1009.7 |
| 20260905223204 | 81 | 127 | 0.0 | 1.7 | 0.00 | 0.00 | 0.00 | 74 | 1009.4 |
| 20260905222700 | 81 | 135 | 0.0 | 1.7 | 0.00 | 0.00 | 0.00 | 73 | 1009.2 |
| 20260905222159 | 81 | 126 | 1.7 | 1.7 | 0.00 | 0.00 | 0.00 | 73 | 1008.8 |
| 20260905221655 | 81 | 116 | 1.7 | 1.7 | 0.00 | 0.00 | 0.00 | 72 | 1008.5 |
| 20260905221152 | 82 | 140 | 1.7 | 2.6 | 0.00 | 0.00 | 0.00 | 72 | 1008.6 |
| 20260905220647 | 82 | 218 | 2.6 | 2.6 | 0.00 | 0.00 | 0.00 | 72 | 1008.4 |
| 20260905220143 | 82 | 180 | 0.0 | 1.7 | 0.00 | 0.00 | 0.00 | 70 | 1008.0 |
| 20260905215642 | 81 | 254 | 1.7 | 1.7 | 0.00 | 0.00 | 0.00 | 71 | 1008.0 |
| 20260905215138 | 81 | 120 | 0.0 | 2.6 | 0.00 | 0.00 | 0.00 | 74 | 1008.1 |
| 20260905214635 | 80 | 193 | 0.0 | 1.7 | 0.00 | 0.00 | 0.00 | 77 | 1008.0 |
| 20260905214135 | 80 | 172 | 0.9 | 1.7 | 0.00 | 0.00 | 0.00 | 76 | 1008.0 |
| 20260905213630 | 80 | 194 | 0.9 | 2.6 | 0.00 | 0.00 | 0.00 | 76 | 1008.4 |
| 20260905213125 | 81 | 188 | 0.9 | 2.6 | 0.00 | 0.00 | 0.00 | 73 | 1008.3 |
| 20260905212621 | 83 | 156 | 3.5 | 4.3 | 0.00 | 0.00 | 0.00 | 68 | 1008.5 |
| 20260905212120 | 84 | 162 | 1.7 | 5.2 | 0.00 | 0.00 | 0.00 | 65 | 1008.5 |
| 20260905211615 | 85 | 187 | 1.7 | 2.6 | 0.00 | 0.00 | 0.00 | 63 | 1008.2 |
| 20260905211111 | 85 | 198 | 1.7 | 2.6 | 0.00 | 0.00 | 0.00 | 61 | 1007.9 |
| 20260905210608 | 86 | 172 | 1.7 | 2.6 | 0.00 | 0.00 | 0.00 | 60 | 1008.3 |
| 20260905210108 | 87 | 144 | 1.7 | 2.6 | 0.00 | 0.00 | 0.00 | 60 | 1008.6 |
| 20260905205607 | 88 | 139 | 1.7 | 2.6 | 0.00 | 0.00 | 0.00 | 61 | 1008.2 |
| 20260905205106 | 90 | 160 | 4.3 | 5.2 | 0.00 | 0.00 | 0.00 | 60 | 1008.4 |
| 20260905204601 | 91 | 153 | 2.6 | 2.6 | 0.00 | 0.00 | 0.00 | 61 | 1008.7 |
| 20260905204056 | 93 | 144 | 0.9 | 2.6 | 0.00 | 0.00 | 0.00 | 57 | 1008.3 |
| 20260905203555 | 94 | 259 | 0.0 | 1.7 | 0.00 | 0.00 | 0.00 | 54 | 1008.4 |
| 20260905203051 | 95 | 157 | 0.9 | 1.7 | 0.00 | 0.00 | 0.00 | 53 | 1008.2 |
| 20260905202546 | 96 | 204 | 1.7 | 5.2 | 0.00 | 0.00 | 0.00 | 51 | 1008.1 |
| 20260905202042 | 97 | 214 | 2.6 | 2.6 | 0.00 | 0.00 | 0.00 | 50 | 1007.8 |
| 20260905201537 | 98 | 209 | 2.6 | 2.6 | 0.00 | 0.00 | 0.00 | 49 | 1007.8 |
| 20260905201037 | 98 | 356 | 1.7 | 2.6 | 0.00 | 0.00 | 0.00 | 47 | 1007.9 |
| 20260905200532 | 100 | 142 | 1.7 | 2.6 | 0.00 | 0.00 | 0.00 | 46 | 1007.8 |
| 20260905200033 | 101 | 174 | 1.7 | 3.5 | 0.00 | 0.00 | 0.00 | 44 | 1007.7 |
| 20260905195532 | 102 | 172 | 0.9 | 2.6 | 0.00 | 0.00 | 0.00 | 42 | 1007.7 |
| 20260905195022 | 101 | 173 | 0.0 | 1.7 | 0.00 | 0.00 | 0.00 | 44 | 1007.8 |
| 20260905194522 | 101 | 150 | 1.7 | 2.6 | 0.00 | 0.00 | 0.00 | 45 | 1008.0 |
| 20260905194021 | 101 | 199 | 0.0 | 1.7 | 0.00 | 0.00 | 0.00 | 46 | 1008.0 |
| 20260905193516 | 101 | 121 | 0.0 | 2.6 | 0.00 | 0.00 | 0.00 | 44 | 1008.0 |
| 20260905193011 | 101 | 328 | 0.9 | 2.6 | 0.00 | 0.00 | 0.00 | 45 | 1008.2 |
| 20260905192506 | 101 | 157 | 0.0 | 2.6 | 0.00 | 0.00 | 0.00 | 45 | 1008.2 |
| 20260905192002 | 101 | 145 | 2.6 | 2.6 | 0.00 | 0.00 | 0.00 | 47 | 1008.2 |
| 20260905191501 | 100 | 192 | 0.9 | 3.5 | 0.00 | 0.00 | 0.00 | 46 | 1008.3 |
| 20260905191000 | 100 | 128 | 0.9 | 2.6 | 0.00 | 0.00 | 0.00 | 47 | 1008.3 |
| 20260905190458 | 99 | 235 | 2.6 | 2.6 | 0.00 | 0.00 | 0.00 | 47 | 1008.3 |
| 20260905185957 | 100 | 28 | 0.9 | 2.6 | 0.00 | 0.00 | 0.00 | 47 | 1008.4 |
| 20260905185452 | 99 | 179 | 0.9 | 2.6 | 0.00 | 0.00 | 0.00 | 48 | 1008.2 |
| 20260905184951 | 99 | 53 | 0.0 | 2.6 | 0.00 | 0.00 | 0.00 | 49 | 1008.5 |
| 20260905184446 | 99 | 207 | 2.6 | 2.6 | 0.00 | 0.00 | 0.00 | 47 | 1008.7 |
| 20260905183944 | 99 | 2 | 0.9 | 1.7 | 0.00 | 0.00 | 0.00 | 50 | 1008.8 |
| 20260905183439 | 99 | 108 | 0.0 | 1.7 | 0.00 | 0.00 | 0.00 | 48 | 1009.1 |
| 20260905182934 | 99 | 211 | 0.0 | 2.6 | 0.00 | 0.00 | 0.00 | 50 | 1008.9 |
| 20260905182433 | 100 | 125 | 1.7 | 2.6 | 0.00 | 0.00 | 0.00 | 48 | 1009.1 |
| 20260905181929 | 99 | 211 | 2.6 | 3.5 | 0.00 | 0.00 | 0.00 | 49 | 1009.3 |
| 20260905181429 | 98 | 159 | 0.0 | 1.7 | 0.00 | 0.00 | 0.00 | 52 | 1009.3 |
| 20260905180928 | 97 | 47 | 0.9 | 2.6 | 0.00 | 0.00 | 0.00 | 53 | 1009.6 |
| 20260905180423 | 97 | 169 | 0.9 | 1.7 | 0.00 | 0.00 | 0.00 | 52 | 1009.6 |
| 20260905175918 | 98 | 188 | 0.9 | 2.6 | 0.00 | 0.00 | 0.00 | 52 | 1009.6 |
| 20260905175418 | 98 | 101 | 0.9 | 2.6 | 0.00 | 0.00 | 0.00 | 53 | 1009.8 |
| 20260905174913 | 97 | 144 | 0.9 | 1.7 | 0.00 | 0.00 | 0.00 | 54 | 1009.8 |
| 20260905174409 | 96 | 153 | 1.7 | 3.5 | 0.00 | 0.00 | 0.00 | 55 | 1009.9 |
| 20260905173904 | 97 | 1 | 0.9 | 2.6 | 0.00 | 0.00 | 0.00 | 54 | 1010.1 |
| 20260905173400 | 97 | 117 | 1.7 | 2.6 | 0.00 | 0.00 | 0.00 | 54 | 1010.0 |
| 20260905172855 | 96 | 325 | 1.7 | 2.6 | 0.00 | 0.00 | 0.00 | 54 | 1010.2 |
| 20260905172353 | 96 | 160 | 1.7 | 2.6 | 0.00 | 0.00 | 0.00 | 55 | 1010.3 |
| 20260905171849 | 96 | 40 | 1.7 | 2.6 | 0.00 | 0.00 | 0.00 | 56 | 1010.2 |
| 20260905171346 | 96 | 171 | 0.0 | 2.6 | 0.00 | 0.00 | 0.00 | 56 | 1010.4 |
| 20260905170842 | 95 | 99 | 0.9 | 1.7 | 0.00 | 0.00 | 0.00 | 56 | 1010.5 |
| 20260905170338 | 95 | 185 | 0.9 | 1.7 | 0.00 | 0.00 | 0.00 | 58 | 1010.6 |
| 20260905165837 | 95 | 154 | 0.9 | 2.6 | 0.00 | 0.00 | 0.00 | 57 | 1010.4 |
| 20260905165332 | 94 | 133 | 1.7 | 1.7 | 0.00 | 0.00 | 0.00 | 57 | 1010.8 |
| 20260905164832 | 95 | 112 | 0.0 | 1.7 | 0.00 | 0.00 | 0.00 | 58 | 1010.7 |
| 20260905164327 | 95 | 195 | 0.9 | 2.6 | 0.00 | 0.00 | 0.00 | 55 | 1010.8 |
| 20260905163822 | 95 | 226 | 0.0 | 1.7 | 0.00 | 0.00 | 0.00 | 56 | 1010.9 |
| 20260905163319 | 95 | 194 | 0.9 | 3.5 | 0.00 | 0.00 | 0.00 | 55 | 1011.0 |
| 20260905162815 | 95 | 61 | 0.0 | 2.6 | 0.00 | 0.00 | 0.00 | 57 | 1011.1 |
| 20260905162314 | 94 | 188 | 0.9 | 2.6 | 0.00 | 0.00 | 0.00 | 59 | 1011.2 |
| 20260905161809 | 94 | 129 | 0.0 | 1.7 | 0.00 | 0.00 | 0.00 | 60 | 1011.3 |
| 20260905161308 | 93 | 151 | 0.0 | 1.7 | 0.00 | 0.00 | 0.00 | 61 | 1011.3 |
| 20260905160807 | 93 | 122 | 0.9 | 1.7 | 0.00 | 0.00 | 0.00 | 61 | 1011.4 |
| 20260905160300 | 92 | 66 | 0.0 | 2.6 | 0.00 | 0.00 | 0.00 | 60 | 1011.4 |
| 20260905155755 | 92 | 195 | 0.9 | 3.5 | 0.00 | 0.00 | 0.00 | 62 | 1011.5 |
| 20260905155254 | 92 | 86 | 0.9 | 2.6 | 0.00 | 0.00 | 0.00 | 64 | 1011.5 |
| 20260905154748 | 92 | 266 | 0.0 | 1.7 | 0.00 | 0.00 | 0.00 | 64 | 1011.7 |
| 20260905154245 | 92 | 158 | 0.0 | 2.6 | 0.00 | 0.00 | 0.00 | 64 | 1011.4 |
| 20260905153740 | 91 | 188 | 1.7 | 2.6 | 0.00 | 0.00 | 0.00 | 65 | 1011.7 |
| 20260905153236 | 90 | 199 | 0.0 | 2.6 | 0.00 | 0.00 | 0.00 | 67 | 1011.6 |
| 20260905152731 | 90 | 230 | 0.9 | 1.7 | 0.00 | 0.00 | 0.00 | 68 | 1011.6 |
| 20260905152230 | 89 | 136 | 0.9 | 1.7 | 0.00 | 0.00 | 0.00 | 68 | 1011.8 |
| 20260905151730 | 89 | 169 | 1.7 | 1.7 | 0.00 | 0.00 | 0.00 | 69 | 1012.0 |
| 20260905151227 | 89 | 141 | 1.7 | 2.6 | 0.00 | 0.00 | 0.00 | 69 | 1011.9 |
| 20260905150726 | 88 | 162 | 1.7 | 2.6 | 0.00 | 0.00 | 0.00 | 69 | 1011.9 |
| 20260905150226 | 89 | 147 | 1.7 | 2.6 | 0.00 | 0.00 | 0.00 | 70 | 1011.7 |
| 20260905145723 | 88 | 174 | 0.9 | 1.7 | 0.00 | 0.00 | 0.00 | 72 | 1012.0 |
| 20260905145218 | 88 | 88 | 0.0 | 1.7 | 0.00 | 0.00 | 0.00 | 73 | 1011.9 |
| 20260905144718 | 87 | 215 | 0.0 | 1.7 | 0.00 | 0.00 | 0.00 | 73 | 1012.3 |
| 20260905144218 | 87 | 149 | 0.0 | 1.7 | 0.00 | 0.00 | 0.00 | 74 | 1012.1 |
| 20260905143717 | 86 | 102 | 0.9 | 1.7 | 0.00 | 0.00 | 0.00 | 75 | 1012.2 |
| 20260905143217 | 86 | 106 | 1.7 | 1.7 | 0.00 | 0.00 | 0.00 | 76 | 1012.2 |
| 20260905142715 | 86 | 146 | 0.9 | 2.6 | 0.00 | 0.00 | 0.00 | 75 | 1012.1 |
| 20260905142210 | 86 | 164 | 2.6 | 2.6 | 0.00 | 0.00 | 0.00 | 76 | 1012.2 |
| 20260905141707 | 85 | 326 | 0.0 | 2.6 | 0.00 | 0.00 | 0.00 | 77 | 1012.3 |
| 20260905141203 | 85 | 131 | 0.0 | 1.7 | 0.00 | 0.00 | 0.00 | 78 | 1012.3 |
| 20260905140657 | 85 | 102 | 0.9 | 1.7 | 0.00 | 0.00 | 0.00 | 77 | 1012.4 |
| 20260905140157 | 84 | 168 | 1.7 | 2.6 | 0.00 | 0.00 | 0.00 | 78 | 1012.3 |
| 20260905135651 | 84 | 132 | 0.9 | 2.6 | 0.00 | 0.00 | 0.00 | 78 | 1012.4 |
| 20260905135148 | 84 | 118 | 0.9 | 2.6 | 0.00 | 0.00 | 0.00 | 78 | 1012.5 |
| 20260905134647 | 84 | 158 | 1.7 | 1.7 | 0.00 | 0.00 | 0.00 | 79 | 1012.1 |
| 20260905134146 | 84 | 123 | 0.9 | 2.6 | 0.00 | 0.00 | 0.00 | 78 | 1012.3 |
| 20260905133642 | 84 | 207 | 0.0 | 2.6 | 0.00 | 0.00 | 0.00 | 79 | 1012.3 |
| 20260905133141 | 83 | 148 | 1.7 | 1.7 | 0.00 | 0.00 | 0.00 | 82 | 1012.2 |
| 20260905132641 | 83 | 229 | 1.7 | 1.7 | 0.00 | 0.00 | 0.00 | 83 | 1012.4 |
| 20260905132136 | 81 | 93 | 0.0 | 1.7 | 0.00 | 0.00 | 0.00 | 86 | 1012.5 |
| 20260905131631 | 80 | 127 | 1.7 | 1.7 | 0.00 | 0.00 | 0.00 | 87 | 1012.5 |
| 20260905131126 | 80 | 146 | 1.7 | 2.6 | 0.00 | 0.00 | 0.00 | 88 | 1012.5 |
| 20260905130621 | 79 | 146 | 1.7 | 1.7 | 0.00 | 0.00 | 0.00 | 89 | 1012.5 |
| 20260905130120 | 79 | 150 | 1.7 | 1.7 | 0.00 | 0.00 | 0.00 | 90 | 1012.5 |
| 20260905125615 | 79 | 146 | 0.9 | 1.7 | 0.00 | 0.00 | 0.00 | 91 | 1012.5 |
| 20260905125110 | 78 | 88 | 0.9 | 1.7 | 0.00 | 0.00 | 0.00 | 92 | 1012.4 |
| 20260905124607 | 78 | 177 | 0.9 | 1.7 | 0.00 | 0.00 | 0.00 | 92 | 1012.5 |
| 20260905124103 | 78 | 173 | 0.0 | 1.7 | 0.00 | 0.00 | 0.00 | 93 | 1012.8 |
| 20260905123557 | 77 | 180 | 1.7 | 1.7 | 0.00 | 0.00 | 0.00 | 94 | 1012.5 |
| 20260905123055 | 77 | 167 | 0.9 | 1.7 | 0.00 | 0.00 | 0.00 | 95 | 1012.5 |
| 20260905122555 | 77 | 153 | 0.0 | 1.7 | 0.00 | 0.00 | 0.00 | 96 | 1012.4 |
| 20260905122054 | 76 | 149 | 0.9 | 1.7 | 0.00 | 0.00 | 0.00 | 97 | 1012.4 |
| 20260905121549 | 76 | 141 | 0.9 | 1.7 | 0.00 | 0.00 | 0.00 | 97 | 1012.2 |
| 20260905121044 | 76 | 143 | 0.9 | 1.7 | 0.00 | 0.00 | 0.00 | 97 | 1012.4 |
| 20260905120543 | 75 | 220 | 0.0 | 0.9 | 0.00 | 0.00 | 0.00 | 97 | 1012.3 |
| 20260905120039 | 75 | 113 | 0.0 | 1.7 | 0.00 | 0.00 | 0.00 | 97 | 1012.2 |
| 20260905115538 | 75 | 149 | 0.9 | 1.7 | 0.00 | 0.00 | 0.00 | 97 | 1012.3 |
| 20260905115033 | 75 | 123 | 1.7 | 1.7 | 0.00 | 0.00 | 0.00 | 97 | 1012.2 |
| 20260905114532 | 75 | 144 | 0.9 | 1.7 | 0.00 | 0.00 | 0.00 | 97 | 1012.3 |
| 20260905114031 | 75 | 128 | 0.9 | 0.9 | 0.00 | 0.00 | 0.00 | 97 | 1012.1 |
| 20260905113526 | 75 | 103 | 0.0 | 0.0 | 0.00 | 0.00 | 0.00 | 97 | 1012.0 |
| 20260905113021 | 75 | 135 | 0.0 | 0.9 | 0.00 | 0.00 | 0.00 | 97 | 1012.0 |
| 20260905112517 | 75 | 102 | 0.0 | 0.9 | 0.00 | 0.00 | 0.00 | 97 | 1012.0 |
| 20260905112012 | 74 | 77 | 0.0 | 0.9 | 0.00 | 0.00 | 0.00 | 97 | 1012.0 |
| 20260905111508 | 74 | 137 | 0.0 | 0.9 | 0.00 | 0.00 | 0.00 | 97 | 1011.9 |
| 20260905111007 | 75 | 130 | 0.0 | 0.9 | 0.00 | 0.00 | 0.00 | 97 | 1011.9 |
| 20260905110506 | 75 | 121 | 0.0 | 0.9 | 0.00 | 0.00 | 0.00 | 97 | 1011.7 |
| 20260905110001 | 75 | 133 | 0.0 | 0.9 | 0.00 | 0.00 | 0.00 | 97 | 1011.8 |
| 20260905105501 | 75 | 102 | 0.0 | 0.9 | 0.00 | 0.00 | 0.00 | 97 | 1011.9 |
| 20260905104955 | 75 | 134 | 0.0 | 1.7 | 0.00 | 0.00 | 0.00 | 97 | 1011.7 |
| 20260905104451 | 75 | 126 | 0.0 | 0.9 | 0.00 | 0.00 | 0.00 | 97 | 1011.7 |
| 20260905103951 | 75 | 143 | 0.9 | 0.9 | 0.00 | 0.00 | 0.00 | 97 | 1011.7 |
| 20260905103446 | 75 | 96 | 0.9 | 1.7 | 0.00 | 0.00 | 0.00 | 97 | 1011.7 |
| 20260905102942 | 75 | 97 | 0.0 | 1.7 | 0.00 | 0.00 | 0.00 | 97 | 1011.7 |
| 20260905102438 | 75 | 85 | 0.0 | 0.9 | 0.00 | 0.00 | 0.00 | 97 | 1011.5 |
| 20260905101933 | 75 | 50 | 0.0 | 1.7 | 0.00 | 0.00 | 0.00 | 97 | 1011.5 |
| 20260905101431 | 75 | 138 | 0.9 | 1.7 | 0.00 | 0.00 | 0.00 | 97 | 1011.3 |
| 20260905100926 | 75 | 161 | 0.9 | 0.9 | 0.00 | 0.00 | 0.00 | 97 | 1011.3 |
| 20260905100422 | 75 | 169 | 0.0 | 0.9 | 0.00 | 0.00 | 0.00 | 97 | 1011.3 |
| 20260905095921 | 75 | 201 | 0.9 | 1.7 | 0.00 | 0.00 | 0.00 | 97 | 1011.2 |